Location: アルンシュタイン
(50.0000°N, 10.0000°E)
Time: 15:15:52
(UTC+02:00)

Vanguard 1 - Pass Details

Date: 11 September 2024
Orbit: 649 x 3825 km, 34.3° (Epoch: 02 October)

Event Time Altitude Azimuth Distance (km) Brightness Sun altitude
Rises 14:02:26 0° 212° (SSW) 5,454 14.6 43.2°
Reaches altitude 10° 14:09:06 10° 188° (S) 3,663 14.1 42.9°
Maximum altitude 14:12:28 13° 166° (SSE) 3,064 13.5 42.7°
Drops below altitude 10° 14:15:17 10° 142° (SE) 2,938 13.0 42.6°
Sets 14:19:17 0° 113° (ESE) 3,468 12.9 42.4°
